Regional Weather Roundup
Issued by NWS Sterling, VA

Home | Current Version | Previous Version | Graphics & Text | Print | Product List | Glossary On
Versions: 1 2 3 4 5 6 7 8 9 10 11 12 13 14 15 16 17 18 19 20 21 22 23 24 25 26 27 28 29 30 31 32 33 34 35 36 37 38 39 40 41 42 43 44 45 46 47 48 49 50
680
ASUS41 KLWX 301010
RWRLWX

REGIONAL WEATHER ROUNDUP
NATIONAL WEATHER SERVICE BALTIMORE MD/WASHINGTON DC
600 AM EDT SAT JUL 30 2016

Note: "FAIR" indicates few or no clouds below 12,000 feet
with no significant weather and/or obstructions to visibility.
 TC=TEMPERATURE CELSIUS

 * =Non NWS site. Station does not report precipitation (e.g. rain,
    snow, etc.), thunder, or fog.

DCZ001-MDZ009-015-VAZ040>042-051-053>054-301100-
WASHINGTON METRO

CITY           SKY/WX    TMP DP  RH WIND       PRES   REMARKS
WASHINGTON NAT MOCLDY    78  74  87 SE5       29.94R
DULLES         CLOUDY    74  71  91 SE3       29.94S
ANDREWS AFB    CLOUDY    73  71  94 S2        29.94R
FT BELVOIR     MOCLDY    72  72 100 SE1       29.94S
LEESBURG*      FAIR      73  73 100 W9        29.96R
MANASSAS*      FAIR      73  73 100 SE3       29.94S
GAITHERSBURG*  CLOUDY    72  68  88 CALM      29.99R

$$

MDZ006>007-011-014-301100-
BALTIMORE METRO

CITY           SKY/WX    TMP DP  RH WIND       PRES   REMARKS
BWI AIRPORT    MOCLDY    74  71  91 CALM      29.94R FOG
MD SCIENCE CTR   N/A     77  72  84 MISG      29.94R
MARTIN STATE   PTCLDY    75  75 100 CALM      29.96R
ANNAPOLIS      CLEAR      0   0 100 CALM      29.94R
FORT MEADE*    CLEAR     70  68  94 CALM      29.97R

$$

MDZ012-015-019>023-301100-
MARYLAND EASTERN SHORE

CITY           SKY/WX    TMP DP  RH WIND       PRES   REMARKS
OCEAN CITY     CLEAR     72  70  93 SE3       29.96R
SALISBURY      NOT AVBL
BAY BRIDGE AP* CLEAR     79  77  94 CALM      29.94R
CAMBRIDGE*     CLEAR     72  72 100 CALM      29.95R
EASTON*        CLEAR     75  75 100 CALM      29.99R

$$

MDZ017>025-301100-
SOUTHERN MARYLAND

CITY           SKY/WX    TMP DP  RH WIND       PRES   REMARKS
PATUXENT RIVER NOT AVBL
ST INIGOES     CLEAR     74  72  93 E3        29.94R
LEONARDTOWN*   CLEAR     72  70  94 CALM      29.97R

$$

MDZ003>005-301100-
NORTH CENTRAL MARYLAND

CITY           SKY/WX    TMP DP  RH WIND       PRES   REMARKS
FREDERICK*     CLOUDY    68  68 100 CALM      29.97S FOG
HAGERSTOWN APT CLEAR     74  68  81 CALM      29.95S

$$

MDZ501>502-301100-
WESTERN MARYLAND

CITY           SKY/WX    TMP DP  RH WIND       PRES   REMARKS
OAKLAND*       CLOUDY    64  63  94 SE5       30.05S
CUMBERLAND*    CLOUDY    70  70 100 NW3       29.99F

$$

VAZ025>031-301100-
SHENANDOAH VALLEY

CITY           SKY/WX    TMP DP  RH WIND       PRES   REMARKS
WINCHESTER*    CLOUDY    72  70  94 CALM      29.96R
FRONT ROYAL*   CLOUDY    70  70 100 CALM      29.95R
LURAY*         FAIR     N/A N/A N/A CALM      29.97R
NEW MARKET*    FAIR      69  68  96 CALM      29.96R
STAUNTON*      MOCLDY    70  69  96 CALM      30.00R
WAYNESBORO*    PTSUNNY   71  69  93 CALM      29.99S

$$

WVZ021-048>050-054>055-301100-
EASTERN WEST VIRGINIA PANHANDLE

CITY           SKY/WX    TMP DP  RH WIND       PRES   REMARKS
MARTINSBURG    FAIR      70  69  97 CALM      29.94S FOG
PETERSBURG*    MOCLDY    70  70  98 CALM      29.97R FOG

$$

VAZ036>039-050-301100-
CENTRAL FOOTHILLS

CITY           SKY/WX    TMP DP  RH WIND       PRES   REMARKS
CHARLOTTESVILL MOCLDY    74  70  87 CALM      29.96R
CULPEPER*      FAIR      72  72 100 CALM      29.96R FOG
ORANGE*          N/A     73  73 100 CALM      29.97R
GORDONSVILLE*  FAIR      73  72  99 CALM      29.95R
WARRENTON*     FAIR      73  69  85 CALM      29.94R

$$

VAZ055>057-301100-
NORTH AND CENTRAL PIEDMONT

CITY           SKY/WX    TMP DP  RH WIND       PRES   REMARKS
FREDERICKSBRG* FAIR      73  73 100 CALM      29.94R
STAFFORD*      FAIR      69  68  97 CALM      29.99R FOG

$$

NCZ024-NYZ072-PAZ021-071-VAZ022-071-301100-
OTHER REGIONAL OBSERVATIONS

CITY           SKY/WX    TMP DP  RH WIND       PRES   REMARKS
NEW YORK CITY  CLEAR     74  67  78 CALM      29.98R
PHILADELPHIA   CLOUDY    75  72  90 CALM      29.97R
PITTSBURGH     CLOUDY    69  65  86 CALM      29.94S
ROANOKE        FAIR      70  70 100 W3        30.01R FOG
RICHMOND       FAIR      73  71  93 SE5       29.94S
RALEIGH        MOCLDY    77  72  84 CALM      29.94R

$$

ANZ530>537-301100-
MARINE OBSERVATIONS

STATION/POSITION TIME  TEMP    WIND        PRES
                       AIR SEA DIR/SP/G
                 (UTC) (F)     (DEG/KT/KT) (MB)
THOMAS PT LIGHT  1000   81 83  220/  6/  7 1015.4R
BALT KEY BRIDGE  0948   77     220/  5/  6 1013.7R
COVE POINT       0948   79     230/  4/  5 1014.6R
LEWISETTA        0948   78 86  230/  4/  5 1013.7R
SOLOMONS ISLAND  0948   79 85  170/  2/  3   N/A
PINEY POINT      0948          200/  6/  7   N/A

$$





USA.gov is the U.S. government's official web portal to all federal, state and local government web resources and services.